| time (UTC) | temp F | wind direction | speed MPH | gust MPH | rain 1hr in | rain 24hr in | rain mn in | humidity % | barometer mb |
| 20260504100518 | 45 | 327 | 3.0 | 7.0 | 0.00 | 0.00 | 0.00 | 73 | 1009.5 |
| 20260504081600 | 44 | 1 | 3.0 | 4.0 | 0.00 | 0.00 | 0.00 | 73 | 1009.8 |
| 20260504080520 | 45 | 349 | 1.0 | 2.0 | 0.00 | 0.00 | 0.00 | 73 | 1009.9 |
| 20260504050517 | 45 | 338 | 0.0 | 2.0 | 0.00 | 0.00 | 0.00 | 72 | 1010.3 |
| 20260504045518 | 45 | 345 | 0.0 | 1.0 | 0.00 | 0.00 | 0.00 | 72 | 1010.5 |
| 20260504044517 | 45 | 331 | 1.0 | 2.0 | 0.00 | 0.00 | 0.00 | 71 | 1010.6 |
| 20260504043517 | 44 | 0.0 | 0.0 | 0.00 | 0.00 | 0.00 | 70 | 1010.8 | |
| 20260504042518 | 44 | 353 | 2.0 | 3.0 | 0.00 | 0.00 | 0.00 | 72 | 1011.0 |
| 20260504041538 | 44 | 8 | 2.0 | 3.0 | 0.00 | 0.00 | 0.00 | 72 | 1011.1 |
| 20260504040538 | 43 | 48 | 1.0 | 3.0 | 0.00 | 0.00 | 0.00 | 72 | 1010.8 |
| 20260504035519 | 43 | 16 | 2.0 | 2.0 | 0.00 | 0.00 | 0.00 | 72 | 1010.6 |
| 20260504034519 | 43 | 13 | 2.0 | 3.0 | 0.00 | 0.00 | 0.00 | 72 | 1010.6 |
| 20260504033519 | 42 | 20 | 3.0 | 3.0 | 0.00 | 0.00 | 0.00 | 72 | 1010.4 |
| 20260504032519 | 42 | 17 | 3.0 | 3.0 | 0.00 | 0.00 | 0.00 | 71 | 1010.3 |
| 20260504031519 | 42 | 22 | 3.0 | 3.0 | 0.00 | 0.00 | 0.00 | 68 | 1010.3 |
| 20260504030516 | 43 | 21 | 3.0 | 3.0 | 0.00 | 0.00 | 0.00 | 69 | 1010.3 |
| 20260504025519 | 43 | 15 | 3.0 | 4.0 | 0.00 | 0.00 | 0.00 | 68 | 1010.2 |
| 20260504024520 | 44 | 30 | 2.0 | 2.0 | 0.00 | 0.00 | 0.00 | 65 | 1010.1 |
| 20260504023520 | 44 | 17 | 2.0 | 2.0 | 0.00 | 0.00 | 0.00 | 63 | 1010.2 |
| 20260504022517 | 45 | 11 | 2.0 | 3.0 | 0.00 | 0.00 | 0.00 | 62 | 1010.2 |
| 20260504021517 | 45 | 12 | 2.0 | 2.0 | 0.00 | 0.00 | 0.00 | 62 | 1010.3 |
| 20260504020517 | 46 | 355 | 0.0 | 1.0 | 0.00 | 0.00 | 0.00 | 60 | 1010.3 |
| 20260504015520 | 47 | 0.0 | 0.0 | 0.00 | 0.00 | 0.00 | 55 | 1010.3 | |
| 20260504014520 | 47 | 0.0 | 0.0 | 0.00 | 0.00 | 0.00 | 53 | 1010.3 | |
| 20260504013537 | 48 | 0.0 | 0.0 | 0.00 | 0.00 | 0.00 | 54 | 1010.3 | |
| 20260504012518 | 49 | 30 | 3.0 | 5.0 | 0.00 | 0.00 | 0.00 | 50 | 1010.2 |
| 20260504011518 | 49 | 26 | 4.0 | 6.0 | 0.00 | 0.00 | 0.00 | 49 | 1010.1 |
| 20260504010518 | 50 | 32 | 4.0 | 6.0 | 0.00 | 0.00 | 0.00 | 47 | 1010.0 |
| 20260504005518 | 50 | 20 | 4.0 | 5.0 | 0.00 | 0.00 | 0.00 | 46 | 1009.8 |
| 20260504004519 | 51 | 17 | 4.0 | 5.0 | 0.00 | 0.00 | 0.00 | 44 | 1009.8 |
| 20260504003518 | 51 | 12 | 4.0 | 6.0 | 0.00 | 0.00 | 0.00 | 44 | 1009.7 |
| 20260504002557 | 52 | 12 | 4.0 | 6.0 | 0.00 | 0.00 | 0.00 | 42 | 1009.5 |
| 20260504001517 | 52 | 15 | 4.0 | 6.0 | 0.00 | 0.00 | 0.00 | 40 | 1009.3 |
| 20260504000519 | 52 | 16 | 4.0 | 6.0 | 0.00 | 0.00 | 0.00 | 40 | 1009.2 |
| 20260503235519 | 53 | 17 | 3.0 | 7.0 | 0.00 | 0.00 | 0.00 | 38 | 1009.1 |
| 20260503234517 | 54 | 17 | 3.0 | 5.0 | 0.00 | 0.00 | 0.00 | 37 | 1009.0 |
| 20260503233517 | 54 | 16 | 3.0 | 9.0 | 0.00 | 0.00 | 0.00 | 35 | 1008.7 |
| 20260503232517 | 54 | 22 | 3.0 | 6.0 | 0.00 | 0.00 | 0.00 | 35 | 1008.6 |
| 20260503231517 | 55 | 13 | 2.0 | 8.0 | 0.00 | 0.00 | 0.00 | 33 | 1008.4 |
| 20260503230517 | 56 | 58 | 4.0 | 11.0 | 0.00 | 0.00 | 0.00 | 33 | 1008.4 |
| 20260503225538 | 56 | 33 | 5.0 | 11.0 | 0.00 | 0.00 | 0.00 | 33 | 1008.2 |
| 20260503224518 | 56 | 34 | 7.0 | 10.0 | 0.00 | 0.00 | 0.00 | 30 | 1008.2 |
| 20260503223518 | 56 | 43 | 3.0 | 7.0 | 0.00 | 0.00 | 0.00 | 31 | 1008.2 |
| 20260503222518 | 56 | 20 | 8.0 | 14.0 | 0.00 | 0.00 | 0.00 | 30 | 1008.1 |
| 20260503221518 | 57 | 15 | 6.0 | 12.0 | 0.00 | 0.00 | 0.00 | 31 | 1008.2 |
| 20260503220518 | 57 | 23 | 5.0 | 13.0 | 0.00 | 0.00 | 0.00 | 31 | 1008.2 |
| 20260503215519 | 57 | 21 | 7.0 | 15.0 | 0.00 | 0.00 | 0.00 | 31 | 1008.1 |
| 20260503214519 | 57 | 25 | 5.0 | 15.0 | 0.00 | 0.00 | 0.00 | 30 | 1008.2 |
| 20260503213539 | 57 | 28 | 5.0 | 10.0 | 0.00 | 0.00 | 0.00 | 30 | 1008.2 |
| 20260503212519 | 57 | 19 | 6.0 | 13.0 | 0.00 | 0.00 | 0.00 | 32 | 1008.2 |
| 20260503211519 | 57 | 23 | 5.0 | 9.0 | 0.00 | 0.00 | 0.00 | 33 | 1008.3 |
| 20260503210539 | 57 | 21 | 5.0 | 12.0 | 0.00 | 0.00 | 0.00 | 33 | 1008.2 |
| 20260503205517 | 57 | 27 | 5.0 | 11.0 | 0.00 | 0.00 | 0.00 | 33 | 1008.3 |
| 20260503204517 | 56 | 18 | 5.0 | 10.0 | 0.00 | 0.00 | 0.00 | 34 | 1008.4 |
| 20260503203520 | 56 | 35 | 4.0 | 9.0 | 0.00 | 0.00 | 0.00 | 33 | 1008.6 |
| 20260503202520 | 55 | 19 | 5.0 | 10.0 | 0.00 | 0.00 | 0.00 | 35 | 1008.6 |
| 20260503201517 | 55 | 3 | 2.0 | 6.0 | 0.00 | 0.00 | 0.00 | 36 | 1008.7 |
| 20260503200517 | 56 | 14 | 5.0 | 9.0 | 0.00 | 0.00 | 0.00 | 34 | 1008.7 |
| 20260503195518 | 54 | 3 | 3.0 | 7.0 | 0.00 | 0.00 | 0.00 | 37 | 1008.9 |
| 20260503194538 | 54 | 358 | 3.0 | 6.0 | 0.00 | 0.00 | 0.00 | 39 | 1009.1 |
| 20260503193518 | 54 | 20 | 2.0 | 6.0 | 0.00 | 0.00 | 0.00 | 37 | 1009.3 |
| 20260503192518 | 54 | 71 | 2.0 | 8.0 | 0.00 | 0.00 | 0.00 | 37 | 1009.3 |
| 20260503191518 | 54 | 32 | 2.0 | 6.0 | 0.00 | 0.00 | 0.00 | 39 | 1009.5 |
| 20260503190518 | 53 | 39 | 2.0 | 7.0 | 0.00 | 0.00 | 0.00 | 38 | 1009.5 |
| 20260503185518 | 53 | 68 | 2.0 | 7.0 | 0.00 | 0.00 | 0.00 | 38 | 1009.6 |
| 20260503184519 | 53 | 16 | 5.0 | 13.0 | 0.00 | 0.00 | 0.00 | 41 | 1009.7 |
| 20260503183519 | 52 | 23 | 2.0 | 7.0 | 0.00 | 0.00 | 0.00 | 39 | 1009.8 |
| 20260503182516 | 52 | 40 | 2.0 | 6.0 | 0.00 | 0.00 | 0.00 | 39 | 1009.7 |
| 20260503181519 | 53 | 21 | 2.0 | 6.0 | 0.00 | 0.00 | 0.00 | 38 | 1009.8 |
| 20260503180540 | 52 | 15 | 2.0 | 5.0 | 0.00 | 0.00 | 0.00 | 39 | 1009.9 |
| 20260503175520 | 52 | 29 | 2.0 | 6.0 | 0.00 | 0.00 | 0.00 | 40 | 1010.0 |
| 20260503174537 | 53 | 31 | 3.0 | 11.0 | 0.00 | 0.00 | 0.00 | 39 | 1009.9 |
| 20260503173517 | 52 | 19 | 3.0 | 8.0 | 0.00 | 0.00 | 0.00 | 40 | 1010.0 |
| 20260503172517 | 52 | 24 | 2.0 | 7.0 | 0.00 | 0.00 | 0.00 | 38 | 1010.0 |
| 20260503171537 | 52 | 29 | 3.0 | 9.0 | 0.00 | 0.00 | 0.00 | 39 | 1009.9 |
| 20260503170520 | 53 | 76 | 3.0 | 7.0 | 0.00 | 0.00 | 0.00 | 38 | 1010.0 |
| 20260503150517 | 50 | 26 | 2.0 | 7.0 | 0.00 | 0.00 | 0.00 | 41 | 1010.1 |
| 20260503130518 | 45 | 12 | 2.0 | 5.0 | 0.00 | 0.00 | 0.00 | 69 | 1011.1 |
| 20260503110517 | 39 | 18 | 1.0 | 3.0 | 0.00 | 0.00 | 0.00 | 80 | 1010.7 |